Le nostre stazioni meteo in Italia

Pubblicità
Il mio iltempo24.it
San Pietro Capofiume, Italia (16144): Temperatura & dewpoint: 11.01.2020 19:00:00 - 17.01.2020 19:00:00 (CET)San Pietro Capofiume, Italia (16144): velocità del vento: 11.01.2020 19:00:00 - 17.01.2020 19:00:00 (CET)San Pietro Capofiume, Italia (16144): direzione del vento: 11.01.2020 19:00:00 - 17.01.2020 19:00:00 (CET)San Pietro Capofiume, Italia (16144): reduced air pressure: 11.01.2020 19:00:00 - 17.01.2020 19:00:00 (CET)San Pietro Capofiume, Italia (16144): precipitazioni: 11.01.2020 19:00:00 - 17.01.2020 19:00:00 (CET)
Data & Tempo tt [°C] td [°C] ff [km/h] ff [kn] dd ppp [hPa] rr [mm]
17.01.2020 19:00:00 7,3 3,7 4 2 SSO 1024,8 0,0
17.01.2020 18:00:00 7,7 3,9 3 2 ONO 1024,7 0,0
17.01.2020 17:00:00 8,9 4,1 1 1 SO 1024,4 -
17.01.2020 16:00:00 9,0 4,6 8 4 O 1024,6 0,0
17.01.2020 15:00:00 11,1 4,1 10 5 O 1024,4 0,0
17.01.2020 14:00:00 10,6 4,1 14 8 O 1024,9 0,0
17.01.2020 13:00:00 9,3 3,7 16 9 O 1025,8 0,0
17.01.2020 12:00:00 7,8 3,1 19 10 O 1026,7 0,0
17.01.2020 11:00:00 6,6 3,0 19 11 ONO 1027,2 0,0
17.01.2020 10:00:00 3,1 1,5 11 6 ONO 1027,2 0,2
17.01.2020 09:00:00 -0,1 -1,1 10 5 O 1027,2 0,0
17.01.2020 08:00:00 -0,3 -1,3 8 5 O 1027,2 0,0
17.01.2020 07:00:00 -0,3 -1,3 10 5 O 1027,4 0,0
17.01.2020 06:00:00 0,3 -0,7 11 6 O 1027,5 0,0
17.01.2020 05:00:00 -0,4 -1,4 11 6 O 1027,7 0,0
17.01.2020 04:00:00 0,2 -0,8 12 6 O 1028,2 0,0
17.01.2020 03:00:00 0,1 -0,9 13 7 O 1028,8 0,0
17.01.2020 02:00:00 0,3 -0,8 10 5 O 1029,1 0,0
17.01.2020 01:00:00 1,6 0,6 5 3 O 1029,7 0,0
17.01.2020 00:00:00 1,8 0,8 15 8 ONO 1030,0 0,0
16.01.2020 23:00:00 2,0 1,0 11 6 O 1030,2 0,0
16.01.2020 22:00:00 1,1 0,1 5 3 NO 1030,6 0,0
16.01.2020 21:00:00 1,0 0,0 7 4 ONO 1031,0 0,0
16.01.2020 20:00:00 1,3 0,3 11 6 O 1031,0 0,0
16.01.2020 19:00:00 1,8 0,6 7 4 O 1031,2 0,0
16.01.2020 18:00:00 4,4 2,6 5 3 NNO 1031,1 0,0
16.01.2020 17:00:00 6,9 3,9 10 5 ONO 1030,9 0,0
16.01.2020 16:00:00 7,7 4,5 11 6 NO 1031,0 0,0
16.01.2020 15:00:00 7,6 4,4 11 6 NO 1031,3 0,0
16.01.2020 14:00:00 7,6 4,7 11 6 NNO 1031,7 0,0
16.01.2020 13:00:00 8,1 4,9 9 5 N 1032,2 0,0
16.01.2020 12:00:00 7,2 4,2 5 3 O 1032,8 0,0
16.01.2020 11:00:00 6,8 3,9 7 4 ONO 1033,4 0,0
16.01.2020 10:00:00 6,4 3,9 6 3 O 1033,3 0,0
16.01.2020 09:00:00 5,3 3,8 2 1 O 1032,9 0,0
16.01.2020 08:00:00 4,6 3,3 3 1 S 1032,5 0,0
16.01.2020 07:00:00 4,3 3,0 - - - 1032,0 0,0
16.01.2020 06:00:00 4,5 3,2 - - - - -
16.01.2020 05:00:00 4,6 3,3 - - - 1030,9 0,0
16.01.2020 04:00:00 4,6 3,3 3 2 O 1030,8 0,0
16.01.2020 03:00:00 4,5 3,2 5 3 O 1030,7 0,0
16.01.2020 02:00:00 4,6 3,1 5 3 ONO 1030,6 0,0
16.01.2020 01:00:00 4,7 3,2 4 2 OSO 1030,5 0,0
16.01.2020 00:00:00 4,6 3,1 3 2 OSO 1030,6 0,0
15.01.2020 23:00:00 4,7 3,2 3 1 SO 1030,4 0,0
15.01.2020 22:00:00 4,9 - - - - - -
15.01.2020 21:00:00 5,2 3,5 - - - 1030,3 0,0
15.01.2020 20:00:00 5,4 3,6 1 1 O 1030,3 0,0
15.01.2020 19:00:00 5,4 3,6 1 1 SSO 1030,3 0,0
15.01.2020 18:00:00 6,0 3,7 4 2 SSE 1030,0 0,0
15.01.2020 17:00:00 6,5 3,8 2 1 ONO 1029,7 0,0
15.01.2020 16:00:00 7,1 3,7 6 3 NO 1029,6 0,0
15.01.2020 15:00:00 7,2 3,4 6 3 ONO 1029,5 0,0
15.01.2020 14:00:00 7,1 3,3 7 4 ONO 1029,5 0,0
15.01.2020 13:00:00 6,8 3,6 7 4 NO 1029,9 0,0
15.01.2020 12:00:00 6,1 3,6 8 5 NO 1030,4 0,0
15.01.2020 11:00:00 5,3 3,6 5 3 NNO 1030,7 0,0
15.01.2020 10:00:00 4,4 3,4 3 1 ONO 1030,5 0,0
15.01.2020 09:00:00 3,3 2,3 - - - 1030,3 0,0
15.01.2020 08:00:00 2,6 1,6 5 3 O 1030,1 -
15.01.2020 07:00:00 2,5 - - - - 1030,0 0,0
15.01.2020 06:00:00 2,7 1,7 - - - 1029,5 0,0
15.01.2020 05:00:00 2,7 1,7 0 0 NO 1029,2 0,0
15.01.2020 04:00:00 2,9 1,9 2 1 NO 1029,3 0,0
15.01.2020 03:00:00 3,2 2,2 3 2 NO 1029,7 0,0
15.01.2020 02:00:00 3,0 2,0 4 2 O 1029,6 0,0
15.01.2020 01:00:00 3,4 2,4 3 2 E 1029,5 0,0
15.01.2020 00:00:00 3,4 2,4 0 0 N 1029,6 0,0
14.01.2020 23:00:00 3,1 2,1 3 2 NO 1029,4 0,0
14.01.2020 22:00:00 3,0 2,0 - - - 1029,1 0,0
14.01.2020 21:00:00 3,0 1,8 0 0 ESE 1029,0 0,0
14.01.2020 20:00:00 3,6 2,4 4 2 SE 1028,7 0,0
14.01.2020 19:00:00 3,8 2,5 4 2 E 1028,5 0,0
14.01.2020 18:00:00 4,1 2,8 - - - - 0,0
14.01.2020 17:00:00 4,5 2,8 0 0 N 1027,7 0,0
14.01.2020 16:00:00 4,8 3,1 5 3 NNO 1027,5 0,0
14.01.2020 15:00:00 4,6 3,6 3 2 NO 1027,0 0,0
14.01.2020 14:00:00 4,2 3,2 6 4 NO 1026,8 0,0
14.01.2020 13:00:00 3,7 2,7 5 3 N 1027,1 0,0
14.01.2020 12:00:00 2,8 1,8 5 3 NO 1027,5 0,0
14.01.2020 11:00:00 0,6 -0,3 6 3 O 1028,0 0,2
14.01.2020 10:00:00 -0,4 -1,2 - - - 1027,5 0,0
14.01.2020 09:00:00 -1,1 -1,9 - - - 1027,4 0,0
14.01.2020 08:00:00 -1,6 -2,6 - - - 1026,9 0,0
14.01.2020 07:00:00 -2,3 -3,3 - - - 1026,7 0,0
14.01.2020 06:00:00 -2,9 -3,9 2 1 E 1026,4 0,0
14.01.2020 05:00:00 -3,5 -4,5 4 2 NE 1026,1 0,0
14.01.2020 04:00:00 -3,6 -4,6 - - - 1026,2 0,0
14.01.2020 03:00:00 -3,5 -4,5 0 0 SSE 1026,3 0,0
14.01.2020 02:00:00 -2,9 -3,9 - - - 1026,4 0,0
14.01.2020 01:00:00 -2,0 -2,8 3 2 OSO 1026,1 0,0
14.01.2020 00:00:00 -1,5 -2,3 4 2 OSO 1026,2 0,0
13.01.2020 23:00:00 -1,3 -2,1 5 3 O 1026,6 0,0
13.01.2020 22:00:00 -1,1 -1,9 5 3 O 1026,3 0,0
13.01.2020 21:00:00 -0,9 -1,7 4 2 OSO 1026,5 0,0
13.01.2020 20:00:00 -0,5 -1,3 3 2 ONO 1026,4 0,0
13.01.2020 19:00:00 0,0 -0,8 0 0 NO 1026,4 0,0
13.01.2020 18:00:00 0,8 -0,1 0 0 NO 1026,2 0,0
13.01.2020 17:00:00 1,9 0,9 2 1 ONO 1026,0 0,0
13.01.2020 16:00:00 2,6 1,4 5 3 NNO 1026,3 0,0
13.01.2020 15:00:00 4,3 2,5 10 5 NNO 1026,7 0,0
13.01.2020 14:00:00 5,7 3,4 7 4 NNO 1027,0 0,0
13.01.2020 13:00:00 3,3 2,3 8 5 NO 1027,7 0,0
13.01.2020 12:00:00 1,3 0,4 8 5 ONO 1028,7 0,0
13.01.2020 11:00:00 0,2 -0,7 7 4 ONO 1029,1 0,0
13.01.2020 10:00:00 -0,2 - 0 0 N - 0,0
13.01.2020 09:00:00 -1,1 -1,9 1 0 E 1028,9 0,0
13.01.2020 08:00:00 -1,9 -2,9 1 0 SSE 1028,5 0,0
13.01.2020 07:00:00 -3,5 -4,5 3 2 SE 1028,4 0,0
13.01.2020 06:00:00 -4,1 -5,2 1 1 NNO 1027,9 0,0
13.01.2020 05:00:00 -3,1 -4,1 2 1 NE 1028,1 0,0
13.01.2020 04:00:00 -3,7 -4,7 2 1 O 1028,0 0,0
13.01.2020 03:00:00 -3,5 -4,5 1 1 O 1028,3 0,0
13.01.2020 02:00:00 -3,4 -4,4 2 1 O 1027,9 0,0
13.01.2020 01:00:00 -2,9 -3,9 5 3 O 1027,9 0,0
13.01.2020 00:00:00 -2,9 -3,9 - - - 1028,3 0,0
12.01.2020 23:00:00 -2,7 -3,7 2 1 OSO 1028,3 0,0
12.01.2020 22:00:00 -2,1 -3,1 6 3 O 1028,1 0,0
12.01.2020 21:00:00 -2,2 -3,0 6 3 OSO 1028,0 0,0
12.01.2020 20:00:00 -0,6 -1,6 0 0 N 1028,1 0,0
12.01.2020 19:00:00 1,7 - 0 0 N - 0,0
12.01.2020 18:00:00 4,1 2,5 0 0 N 1027,7 0,0
12.01.2020 17:00:00 6,0 3,0 0 0 NNO 1027,6 0,0
12.01.2020 16:00:00 9,0 3,6 3 2 NNO 1027,8 0,0
12.01.2020 15:00:00 9,4 3,6 7 4 ONO 1028,0 0,0
12.01.2020 14:00:00 9,0 3,6 8 4 ONO 1028,4 0,0
12.01.2020 13:00:00 7,9 3,7 9 5 O 1029,1 0,0
12.01.2020 12:00:00 6,7 3,1 7 4 O 1030,2 0,0
12.01.2020 11:00:00 4,6 1,4 9 5 ONO 1031,1 0,0
12.01.2020 10:00:00 2,0 0,1 7 4 ONO 1031,0 0,2
12.01.2020 09:00:00 -1,3 -2,3 6 4 ONO 1030,8 0,0
12.01.2020 08:00:00 -2,3 -3,3 5 3 ONO 1031,0 0,0
12.01.2020 07:00:00 -2,3 -3,3 6 4 ONO 1031,2 0,0
12.01.2020 06:00:00 -1,2 -2,2 6 3 NO 1031,1 0,0
12.01.2020 05:00:00 -2,6 -3,4 9 5 O 1031,0 0,0
12.01.2020 04:00:00 -1,8 -2,6 7 4 ONO 1031,0 0,0
12.01.2020 03:00:00 -0,6 -1,4 7 4 ONO 1031,1 0,0
12.01.2020 02:00:00 -0,4 -1,2 7 4 NO 1030,9 0,0
12.01.2020 01:00:00 0,1 -0,8 6 3 ONO 1030,6 0,0
12.01.2020 00:00:00 1,1 0,1 6 4 ONO 1030,7 0,0
11.01.2020 23:00:00 1,3 0,3 5 3 O 1030,6 0,0
11.01.2020 22:00:00 1,3 0,3 9 5 O 1030,2 0,0
11.01.2020 21:00:00 1,8 0,8 8 4 O 1029,8 0,0
11.01.2020 20:00:00 1,7 0,5 9 5 ONO 1029,4 0,0
11.01.2020 19:00:00 2,3 1,0 5 3 ONO 1029,3 0,0

tt = Temperatura
td = dewpoint
ff = velocità del vento
dd = direzione del vento
ppp = reduced air pressure
rr = precipitazioni

Stazioni seguenti

WeatherPro
AMSI
MeteoEarth